Hourly Data Report for June 08, 2021

BORDEN AWOS
ONTARIO
Current Station Operator: DND

44°16'20.000" N
79°54'42.000" W
222.50 m
611B002
71534
YBN

Download Data

Hourly Data (June 2021)
Hourly Data Report for June 8, 2021
TIME
LST
Temp Definition
°C
Dew Point Definition
°C
Rel Hum Definition
%
Precip. Amount Definition
mm

Wind Dir Definition
10's deg

Wind Spd Definition
km/h
Visibility Definition
km
Stn Press Definition
kPa
Hmdx Definition


Wind Chill Definition


Weather Definition


00:00 21.2 19.4 90   19 4 14.5 98.96 28   LegendNANA
01:00 21.0 19.3 90   21 4 14.5 98.97 28   Rain
02:00 20.9 19.2 90     0 14.5 99.01 28   Rain
03:00 20.4 19.0 92   16 6 14.5 99.00 27   Rain
04:00 20.3 18.9 92   17 11 14.5 99.00 27   Rain
05:00 20.4 19.1 92   16 9 9.7 99.02 27   Rain
06:00 20.8 19.2 91   17 6 12.9 99.03 28   LegendNANA
07:00 21.6 19.8 90   20 4 14.5 99.09 29   LegendNANA
08:00 22.3 20.1 87   25 4 14.5 99.12 30   LegendNANA
09:00 22.8 20.3 86     0 14.5 99.14 31   Rain
10:00 22.5 20.4 88   24 7 14.5 99.15 30   Rain
11:00 24.5 20.8 80   25 6 14.5 99.15 33   LegendNANA
12:00
13:00 25.1 20.3 75   32 9 14.5 99.08 33   Rain
14:00 25.4 20.3 73   34 6 14.5 99.04 33   LegendNANA
15:00 28.2 20.6 63   26 4 14.5 98.98 36   LegendNANA
16:00 27.0 19.3 63   26 7 14.5 98.96 34   LegendNANA
17:00 26.5 19.9 67   28 7 14.5 98.96 34   LegendNANA
18:00 26.3 20.2 69   29 6 14.5 99.01 34   LegendNANA
19:00 25.1 20.7 77   20 7 14.5 98.89 33   LegendNANA
20:00 23.6 20.5 83   22 6 14.5 98.92 32   LegendNANA
21:00 21.5 19.6 89   17 4 14.5 98.99 29   LegendNANA
22:00 20.9 19.5 92     0 9.7 99.05 28   LegendNANA
23:00 21.8 19.9 89   31 9 14.5 99.13 29   LegendNANA

Notes on Data Quality.

Legend

  • E = Estimated
  • M = Missing
  • NA = Not Available*
  • [empty] = Indicates an unobserved value
Date modified: